Вернуться в каталог

SL-14 DEB

АктивенPO
NORAD 47088·DEBRIS·🇷🇺 Russia

Запущен Aug 15, 1991 с Plesetsk Cosmodrome

Loading…

Ближайшие Пролёты (ближайшие 24 часа)

TLE

УстаревшееSource: Space-Track

Эпоха: Aug 23, 2026, 03:39 UTC

1 47088U 91056DN  26235.15213180  .00008352  00000-0  13822-1 0  9992
2 47088  82.6171 123.7851 0107146 129.1489 231.9231 13.44418668116660

Отслеживайте SL-14 DEB в реальном времени с AllMySat

Download on the App Store